Location: Unspecified
(0.0000°N, 0.0000°E)
Time: 01:00:46
(UTC+00:00)

Amsat-Oscar-6 - Pass Details

Date: 17 June 2019
Orbit: 1448 x 1455 km, 101.8° (Epoch: 13 October)

Event Time Altitude Azimuth Distance (km) Brightness Sun altitude
Rises 04:36:47 0° 346° (NNW) 4,542 ? -19.2°
Reaches altitude 10° 04:40:27 10° 331° (NNW) 3,566 ? -18.4°
Maximum altitude 04:46:08 21° 287° (WNW) 2,831 ? -17.1°
Enters shadow 04:48:11 19° 268° (W) 2,939 ? -16.6°
